contact:dominique.lefevre@mio.osupytheas.fr, maurice.libes@osupytheas.fr, didier.mallarino@osupytheas.fr
Project:EMSO http://www.emso-fr.org/EMSO-France
Depth: 2436.0 m
Title:EMSO Ligure Ouest : Data MII capteur MICROCAT
DateTime_Computer,Latitude,Longitude,Temperature,Conductivity,Pressure,DateTime_Instrument
DateTime_Computer,Latitude,Longitude,degC,S m-1,dbar,DateTime_Instrument
2021-11-13T00:01:24Z,42.805,6.029,13.3007,4.60072,2470.45,2021-11-13T02:02:49Z
2021-11-13T00:04:27Z,42.805,6.029,13.3011,4.60044,2470.39,2021-11-13T02:05:52Z
2021-11-13T00:07:30Z,42.805,6.029,13.3013,4.60035,2470.45,2021-11-13T02:08:56Z
2021-11-13T00:10:33Z,42.805,6.029,13.3003,4.60042,2470.427,2021-11-13T02:11:59Z
2021-11-13T00:13:36Z,42.805,6.029,13.3009,4.60052,2470.404,2021-11-13T02:15:02Z
2021-11-13T00:16:39Z,42.805,6.029,13.3014,4.60049,2470.413,2021-11-13T02:18:05Z
2021-11-13T00:19:42Z,42.805,6.029,13.3006,4.60037,2470.413,2021-11-13T02:21:08Z
2021-11-13T00:22:45Z,42.805,6.029,13.3009,4.60072,2470.38,2021-11-13T02:24:11Z
2021-11-13T00:25:48Z,42.805,6.029,13.3029,4.60039,2470.437,2021-11-13T02:27:14Z
2021-11-13T00:28:52Z,42.805,6.029,13.3024,4.60060,2470.45,2021-11-13T02:30:17Z
2021-11-13T00:31:55Z,42.805,6.029,13.3015,4.60060,2470.413,2021-11-13T02:33:21Z
2021-11-13T00:34:58Z,42.805,6.029,13.3005,4.60039,2470.39,2021-11-13T02:36:24Z
2021-11-13T00:38:01Z,42.805,6.029,13.3012,4.60042,2470.437,2021-11-13T02:39:27Z
2021-11-13T00:41:04Z,42.805,6.029,13.3017,4.60067,2470.427,2021-11-13T02:42:30Z
2021-11-13T00:44:07Z,42.805,6.029,13.3011,4.60033,2470.413,2021-11-13T02:45:33Z
2021-11-13T00:47:10Z,42.805,6.029,13.3001,4.60041,2470.39,2021-11-13T02:48:36Z
2021-11-13T00:50:13Z,42.805,6.029,13.3012,4.60051,2470.413,2021-11-13T02:51:39Z
2021-11-13T00:53:17Z,42.805,6.029,13.3008,4.60028,2470.413,2021-11-13T02:54:42Z
2021-11-13T00:56:20Z,42.805,6.029,13.3019,4.60031,2470.39,2021-11-13T02:57:46Z
2021-11-13T00:59:23Z,42.805,6.029,13.3011,4.60032,2470.413,2021-11-13T03:00:49Z
2021-11-13T01:02:26Z,42.805,6.029,13.3016,4.60046,2470.427,2021-11-13T03:03:52Z
2021-11-13T01:05:29Z,42.805,6.029,13.3014,4.60052,2470.413,2021-11-13T03:06:55Z
2021-11-13T01:08:32Z,42.805,6.029,13.3015,4.60048,2470.427,2021-11-13T03:09:58Z
2021-11-13T01:11:35Z,42.805,6.029,13.3006,4.60020,2470.413,2021-11-13T03:13:01Z
2021-11-13T01:14:38Z,42.805,6.029,13.2993,4.60014,2470.45,2021-11-13T03:16:04Z
2021-11-13T01:17:42Z,42.805,6.029,13.3011,4.60015,2470.45,2021-11-13T03:19:07Z
2021-11-13T01:20:45Z,42.805,6.029,13.3015,4.60039,2470.413,2021-11-13T03:22:10Z
2021-11-13T01:23:48Z,42.805,6.029,13.3015,4.60033,2470.474,2021-11-13T03:25:14Z
2021-11-13T01:26:51Z,42.805,6.029,13.3018,4.60032,2470.404,2021-11-13T03:28:17Z
2021-11-13T01:29:54Z,42.805,6.029,13.3000,4.60018,2470.404,2021-11-13T03:31:20Z
2021-11-13T01:32:57Z,42.805,6.029,13.2996,4.60016,2470.45,2021-11-13T03:34:23Z
2021-11-13T01:36:00Z,42.805,6.029,13.2994,4.60015,2470.427,2021-11-13T03:37:26Z
2021-11-13T01:39:03Z,42.805,6.029,13.2997,4.60017,2470.413,2021-11-13T03:40:29Z
2021-11-13T01:42:07Z,42.805,6.029,13.3000,4.60019,2470.427,2021-11-13T03:43:32Z
2021-11-13T01:45:10Z,42.805,6.029,13.2996,4.60029,2470.39,2021-11-13T03:46:36Z
2021-11-13T01:48:13Z,42.805,6.029,13.3009,4.60032,2470.404,2021-11-13T03:49:39Z
2021-11-13T01:51:16Z,42.805,6.029,13.3009,4.60041,2470.413,2021-11-13T03:52:42Z
2021-11-13T01:54:19Z,42.805,6.029,13.3014,4.60051,2470.413,2021-11-13T03:55:45Z
2021-11-13T01:57:22Z,42.805,6.029,13.3011,4.60033,2470.413,2021-11-13T03:58:48Z
2021-11-13T02:00:25Z,42.805,6.029,13.3017,4.60045,2470.427,2021-11-13T04:01:51Z
2021-11-13T02:03:28Z,42.805,6.029,13.3009,4.60050,2470.413,2021-11-13T04:04:54Z
2021-11-13T02:06:32Z,42.805,6.029,13.3011,4.60037,2470.413,2021-11-13T04:07:57Z
2021-11-13T02:09:35Z,42.805,6.029,13.2996,4.60016,2470.413,2021-11-13T04:11:00Z
2021-11-13T02:12:38Z,42.805,6.029,13.3014,4.60022,2470.427,2021-11-13T04:14:04Z
2021-11-13T02:15:41Z,42.805,6.029,13.3024,4.60026,2470.45,2021-11-13T04:17:07Z
2021-11-13T02:18:44Z,42.805,6.029,13.3006,4.60033,2470.413,2021-11-13T04:20:10Z
2021-11-13T02:21:47Z,42.805,6.029,13.3019,4.60033,2470.413,2021-11-13T04:23:13Z
2021-11-13T02:24:50Z,42.805,6.029,13.3014,4.60046,2470.437,2021-11-13T04:26:16Z
2021-11-13T02:27:53Z,42.805,6.029,13.3017,4.60029,2470.413,2021-11-13T04:29:19Z
2021-11-13T02:30:56Z,42.805,6.029,13.3012,4.60054,2470.45,2021-11-13T04:32:22Z
2021-11-13T02:34:00Z,42.805,6.029,13.3015,4.60021,2470.437,2021-11-13T04:35:25Z
2021-11-13T02:37:03Z,42.805,6.029,13.3013,4.60064,2470.46,2021-11-13T04:38:29Z
2021-11-13T02:40:06Z,42.805,6.029,13.3010,4.60040,2470.46,2021-11-13T04:41:32Z
2021-11-13T02:43:09Z,42.805,6.029,13.3019,4.60036,2470.474,2021-11-13T04:44:35Z
2021-11-13T02:46:12Z,42.805,6.029,13.3016,4.60035,2470.427,2021-11-13T04:47:38Z
2021-11-13T02:49:15Z,42.805,6.029,13.3014,4.60036,2470.437,2021-11-13T04:50:41Z
2021-11-13T02:52:18Z,42.805,6.029,13.3014,4.60029,2470.46,2021-11-13T04:53:44Z
2021-11-13T02:55:22Z,42.805,6.029,13.3014,4.60063,2470.45,2021-11-13T04:56:47Z
2021-11-13T02:58:25Z,42.805,6.029,13.3015,4.60051,2470.45,2021-11-13T04:59:50Z
2021-11-13T03:01:28Z,42.805,6.029,13.3016,4.60029,2470.437,2021-11-13T05:02:54Z
2021-11-13T03:04:31Z,42.805,6.029,13.3009,4.60031,2470.437,2021-11-13T05:05:57Z
2021-11-13T03:07:34Z,42.805,6.029,13.3021,4.60029,2470.413,2021-11-13T05:09:00Z
2021-11-13T03:10:37Z,42.805,6.029,13.3011,4.60046,2470.474,2021-11-13T05:12:03Z
2021-11-13T03:13:40Z,42.805,6.029,13.3014,4.60031,2470.437,2021-11-13T05:15:06Z
2021-11-13T03:16:43Z,42.805,6.029,13.3021,4.60053,2470.46,2021-11-13T05:18:09Z
2021-11-13T03:19:46Z,42.805,6.029,13.3011,4.60044,2470.45,2021-11-13T05:21:12Z
2021-11-13T03:22:50Z,42.805,6.029,13.3009,4.60038,2470.46,2021-11-13T05:24:15Z
2021-11-13T03:25:53Z,42.805,6.029,13.3016,4.60032,2470.45,2021-11-13T05:27:19Z
2021-11-13T03:28:56Z,42.805,6.029,13.3011,4.60028,2470.474,2021-11-13T05:30:22Z
2021-11-13T03:31:59Z,42.805,6.029,13.3006,4.60020,2470.45,2021-11-13T05:33:25Z
2021-11-13T03:35:02Z,42.805,6.029,13.3006,4.60021,2470.45,2021-11-13T05:36:28Z
2021-11-13T03:38:05Z,42.805,6.029,13.3001,4.60029,2470.413,2021-11-13T05:39:31Z
2021-11-13T03:41:08Z,42.805,6.029,13.3019,4.60047,2470.437,2021-11-13T05:42:34Z
2021-11-13T03:44:11Z,42.805,6.029,13.3015,4.60040,2470.45,2021-11-13T05:45:37Z
2021-11-13T03:47:15Z,42.805,6.029,13.3026,4.60048,2470.437,2021-11-13T05:48:40Z
2021-11-13T03:50:18Z,42.805,6.029,13.3010,4.60034,2470.437,2021-11-13T05:51:44Z
2021-11-13T03:53:21Z,42.805,6.029,13.3013,4.60038,2470.437,2021-11-13T05:54:47Z
2021-11-13T03:56:24Z,42.805,6.029,13.2998,4.60019,2470.45,2021-11-13T05:57:50Z
2021-11-13T03:59:27Z,42.805,6.029,13.3016,4.60039,2470.474,2021-11-13T06:00:53Z
2021-11-13T04:02:30Z,42.805,6.029,13.3019,4.60037,2470.437,2021-11-13T06:03:56Z
2021-11-13T04:05:33Z,42.805,6.029,13.3018,4.60039,2470.437,2021-11-13T06:06:59Z
2021-11-13T04:08:36Z,42.805,6.029,13.3015,4.60041,2470.427,2021-11-13T06:10:02Z
2021-11-13T04:11:40Z,42.805,6.029,13.3014,4.60041,2470.427,2021-11-13T06:13:05Z
2021-11-13T04:14:43Z,42.805,6.029,13.3015,4.60052,2470.437,2021-11-13T06:16:08Z
2021-11-13T04:17:46Z,42.805,6.029,13.3016,4.60073,2470.437,2021-11-13T06:19:12Z
2021-11-13T04:20:49Z,42.805,6.029,13.3021,4.60064,2470.437,2021-11-13T06:22:15Z
2021-11-13T04:23:52Z,42.805,6.029,13.3008,4.60044,2470.413,2021-11-13T06:25:18Z
2021-11-13T04:26:55Z,42.805,6.029,13.3021,4.60059,2470.45,2021-11-13T06:28:21Z
2021-11-13T04:29:58Z,42.805,6.029,13.3014,4.60041,2470.45,2021-11-13T06:31:24Z
2021-11-13T04:33:01Z,42.805,6.029,13.3023,4.60043,2470.437,2021-11-13T06:34:27Z
2021-11-13T04:36:05Z,42.805,6.029,13.3014,4.60051,2470.474,2021-11-13T06:37:30Z
2021-11-13T04:39:08Z,42.805,6.029,13.3022,4.60084,2470.413,2021-11-13T06:40:33Z
2021-11-13T04:42:11Z,42.805,6.029,13.3009,4.60053,2470.413,2021-11-13T06:43:37Z
2021-11-13T04:45:14Z,42.805,6.029,13.3015,4.60064,2470.413,2021-11-13T06:46:40Z
2021-11-13T04:48:17Z,42.805,6.029,13.3018,4.60059,2470.45,2021-11-13T06:49:43Z
2021-11-13T04:51:20Z,42.805,6.029,13.3015,4.60057,2470.427,2021-11-13T06:52:46Z
2021-11-13T04:54:23Z,42.805,6.029,13.3016,4.60059,2470.45,2021-11-13T06:55:49Z
2021-11-13T04:57:26Z,42.805,6.029,13.3018,4.60049,2470.427,2021-11-13T06:58:52Z
2021-11-13T05:00:30Z,42.805,6.029,13.3011,4.60050,2470.39,2021-11-13T07:01:55Z
2021-11-13T05:03:33Z,42.805,6.029,13.3016,4.60043,2470.45,2021-11-13T07:04:58Z
2021-11-13T05:06:36Z,42.805,6.029,13.3015,4.60056,2470.427,2021-11-13T07:08:02Z
2021-11-13T05:09:39Z,42.805,6.029,13.3015,4.60086,2470.437,2021-11-13T07:11:05Z
2021-11-13T05:12:42Z,42.805,6.029,13.3006,4.60034,2470.437,2021-11-13T07:14:08Z
2021-11-13T05:15:45Z,42.805,6.029,13.3030,4.60068,2470.45,2021-11-13T07:17:11Z
2021-11-13T05:18:48Z,42.805,6.029,13.3011,4.60058,2470.437,2021-11-13T07:20:14Z
2021-11-13T05:21:51Z,42.805,6.029,13.3002,4.60056,2470.437,2021-11-13T07:23:17Z
2021-11-13T05:24:55Z,42.805,6.029,13.3000,4.60049,2470.427,2021-11-13T07:26:20Z
2021-11-13T05:27:58Z,42.805,6.029,13.3002,4.60084,2470.413,2021-11-13T07:29:23Z
2021-11-13T05:31:01Z,42.805,6.029,13.3002,4.60069,2470.45,2021-11-13T07:32:27Z
2021-11-13T05:34:04Z,42.805,6.029,13.3015,4.60062,2470.427,2021-11-13T07:35:30Z
2021-11-13T05:37:07Z,42.805,6.029,13.3005,4.60056,2470.46,2021-11-13T07:38:33Z
2021-11-13T05:40:10Z,42.805,6.029,13.3008,4.60033,2470.437,2021-11-13T07:41:36Z
2021-11-13T05:43:13Z,42.805,6.029,13.3006,4.60047,2470.45,2021-11-13T07:44:39Z
2021-11-13T05:46:16Z,42.805,6.029,13.3006,4.60059,2470.39,2021-11-13T07:47:42Z
2021-11-13T05:49:20Z,42.805,6.029,13.3007,4.60050,2470.404,2021-11-13T07:50:45Z
2021-11-13T05:52:23Z,42.805,6.029,13.3008,4.60028,2470.413,2021-11-13T07:53:48Z
2021-11-13T05:55:26Z,42.805,6.029,13.3006,4.60061,2470.427,2021-11-13T07:56:52Z
2021-11-13T05:58:29Z,42.805,6.029,13.3014,4.60051,2470.437,2021-11-13T07:59:55Z
2021-11-13T06:01:32Z,42.805,6.029,13.3006,4.60042,2470.404,2021-11-13T08:02:58Z
2021-11-13T06:04:35Z,42.805,6.029,13.3003,4.60042,2470.45,2021-11-13T08:06:01Z
2021-11-13T06:07:38Z,42.805,6.029,13.2997,4.60050,2470.427,2021-11-13T08:09:04Z
2021-11-13T06:10:41Z,42.805,6.029,13.3009,4.60050,2470.413,2021-11-13T08:12:07Z
2021-11-13T06:13:45Z,42.805,6.029,13.3011,4.60047,2470.404,2021-11-13T08:15:10Z
2021-11-13T06:16:48Z,42.805,6.029,13.3018,4.60069,2470.39,2021-11-13T08:18:13Z
2021-11-13T06:19:51Z,42.805,6.029,13.3008,4.60044,2470.437,2021-11-13T08:21:17Z
2021-11-13T06:22:54Z,42.805,6.029,13.3011,4.60064,2470.427,2021-11-13T08:24:20Z
2021-11-13T06:25:57Z,42.805,6.029,13.3012,4.60049,2470.413,2021-11-13T08:27:23Z
2021-11-13T06:29:00Z,42.805,6.029,13.3000,4.60045,2470.427,2021-11-13T08:30:26Z
2021-11-13T06:32:03Z,42.805,6.029,13.2998,4.60047,2470.46,2021-11-13T08:33:29Z
2021-11-13T06:35:06Z,42.805,6.029,13.3013,4.60057,2470.39,2021-11-13T08:36:32Z
2021-11-13T06:38:09Z,42.805,6.029,13.3000,4.60046,2470.437,2021-11-13T08:39:35Z
2021-11-13T06:41:13Z,42.805,6.029,13.3000,4.60033,2470.427,2021-11-13T08:42:38Z
2021-11-13T06:44:16Z,42.805,6.029,13.3000,4.60050,2470.437,2021-11-13T08:45:42Z
2021-11-13T06:47:19Z,42.805,6.029,13.3002,4.60046,2470.427,2021-11-13T08:48:45Z
2021-11-13T06:50:22Z,42.805,6.029,13.3004,4.60041,2470.376,2021-11-13T08:51:48Z
2021-11-13T06:53:25Z,42.805,6.029,13.3004,4.60037,2470.427,2021-11-13T08:54:51Z
2021-11-13T06:56:28Z,42.805,6.029,13.2998,4.60046,2470.413,2021-11-13T08:57:54Z
2021-11-13T06:59:31Z,42.805,6.029,13.3003,4.60037,2470.39,2021-11-13T09:00:57Z
2021-11-13T07:02:34Z,42.805,6.029,13.2996,4.60042,2470.39,2021-11-13T09:04:00Z
2021-11-13T07:05:38Z,42.805,6.029,13.2998,4.60042,2470.413,2021-11-13T09:07:03Z
2021-11-13T07:08:41Z,42.805,6.029,13.2998,4.60049,2470.404,2021-11-13T09:10:07Z
2021-11-13T07:11:44Z,42.805,6.029,13.2996,4.60044,2470.404,2021-11-13T09:13:10Z
2021-11-13T07:14:47Z,42.805,6.029,13.2995,4.60035,2470.404,2021-11-13T09:16:13Z
2021-11-13T07:17:50Z,42.805,6.029,13.3000,4.60036,2470.413,2021-11-13T09:19:16Z
2021-11-13T07:20:53Z,42.805,6.029,13.3003,4.60039,2470.404,2021-11-13T09:22:19Z
2021-11-13T07:23:56Z,42.805,6.029,13.2998,4.60022,2470.427,2021-11-13T09:25:22Z
2021-11-13T07:26:59Z,42.805,6.029,13.3011,4.60048,2470.427,2021-11-13T09:28:25Z
2021-11-13T07:30:03Z,42.805,6.029,13.3003,4.60061,2470.427,2021-11-13T09:31:28Z
2021-11-13T07:33:06Z,42.805,6.029,13.3002,4.60048,2470.39,2021-11-13T09:34:32Z
2021-11-13T07:36:09Z,42.805,6.029,13.3003,4.60039,2470.437,2021-11-13T09:37:35Z
2021-11-13T07:39:12Z,42.805,6.029,13.3003,4.60029,2470.45,2021-11-13T09:40:38Z
2021-11-13T07:42:15Z,42.805,6.029,13.3000,4.60029,2470.427,2021-11-13T09:43:41Z
2021-11-13T07:45:18Z,42.805,6.029,13.3006,4.60038,2470.45,2021-11-13T09:46:44Z
2021-11-13T07:48:21Z,42.805,6.029,13.3002,4.60029,2470.39,2021-11-13T09:49:47Z
2021-11-13T07:51:24Z,42.805,6.029,13.2996,4.60029,2470.39,2021-11-13T09:52:50Z
2021-11-13T07:54:28Z,42.805,6.029,13.2997,4.60037,2470.427,2021-11-13T09:55:53Z
2021-11-13T07:57:31Z,42.805,6.029,13.2999,4.60042,2470.404,2021-11-13T09:58:57Z
2021-11-13T08:00:34Z,42.805,6.029,13.3006,4.60048,2470.39,2021-11-13T10:02:00Z
2021-11-13T08:03:37Z,42.805,6.029,13.2996,4.60033,2470.38,2021-11-13T10:05:03Z
2021-11-13T08:06:40Z,42.805,6.029,13.3003,4.60038,2470.404,2021-11-13T10:08:06Z
2021-11-13T08:09:43Z,42.805,6.029,13.2997,4.60044,2470.38,2021-11-13T10:11:09Z
2021-11-13T08:12:46Z,42.805,6.029,13.3000,4.60045,2470.366,2021-11-13T10:14:12Z
2021-11-13T08:15:49Z,42.805,6.029,13.3003,4.60031,2470.39,2021-11-13T10:17:15Z
2021-11-13T08:18:53Z,42.805,6.029,13.3004,4.60035,2470.39,2021-11-13T10:20:18Z
2021-11-13T08:21:56Z,42.805,6.029,13.2998,4.60028,2470.366,2021-11-13T10:23:22Z
2021-11-13T08:24:59Z,42.805,6.029,13.3000,4.60035,2470.404,2021-11-13T10:26:25Z
2021-11-13T08:28:02Z,42.805,6.029,13.3000,4.60033,2470.38,2021-11-13T10:29:28Z
2021-11-13T08:31:05Z,42.805,6.029,13.3000,4.60030,2470.404,2021-11-13T10:32:31Z
2021-11-13T08:34:08Z,42.805,6.029,13.2991,4.60028,2470.39,2021-11-13T10:35:34Z
2021-11-13T08:37:11Z,42.805,6.029,13.3004,4.60046,2470.45,2021-11-13T10:38:37Z
2021-11-13T08:40:15Z,42.805,6.029,13.3001,4.60044,2470.39,2021-11-13T10:41:40Z
2021-11-13T08:43:18Z,42.805,6.029,13.3003,4.60045,2470.366,2021-11-13T10:44:43Z
2021-11-13T08:46:21Z,42.805,6.029,13.3006,4.60041,2470.39,2021-11-13T10:47:47Z
2021-11-13T08:49:24Z,42.805,6.029,13.3006,4.60044,2470.38,2021-11-13T10:50:50Z
2021-11-13T08:52:27Z,42.805,6.029,13.3007,4.60041,2470.39,2021-11-13T10:53:53Z
2021-11-13T08:55:30Z,42.805,6.029,13.3000,4.60033,2470.404,2021-11-13T10:56:56Z
2021-11-13T08:58:33Z,42.805,6.029,13.3000,4.60033,2470.39,2021-11-13T10:59:59Z
2021-11-13T09:01:36Z,42.805,6.029,13.3001,4.60036,2470.366,2021-11-13T11:03:02Z
2021-11-13T09:04:40Z,42.805,6.029,13.3004,4.60029,2470.366,2021-11-13T11:06:05Z
2021-11-13T09:07:43Z,42.805,6.029,13.3004,4.60033,2470.366,2021-11-13T11:09:08Z
2021-11-13T09:10:46Z,42.805,6.029,13.3005,4.60033,2470.404,2021-11-13T11:12:12Z
2021-11-13T09:13:49Z,42.805,6.029,13.2997,4.60036,2470.343,2021-11-13T11:15:15Z
2021-11-13T09:16:52Z,42.805,6.029,13.2996,4.60033,2470.39,2021-11-13T11:18:18Z
2021-11-13T09:19:55Z,42.805,6.029,13.3001,4.60035,2470.38,2021-11-13T11:21:21Z
2021-11-13T09:22:58Z,42.805,6.029,13.3005,4.60033,2470.366,2021-11-13T11:24:24Z
2021-11-13T09:26:01Z,42.805,6.029,13.3000,4.60032,2470.39,2021-11-13T11:27:27Z
2021-11-13T09:29:05Z,42.805,6.029,13.2999,4.60038,2470.404,2021-11-13T11:30:30Z
2021-11-13T09:32:08Z,42.805,6.029,13.3004,4.60033,2470.39,2021-11-13T11:33:33Z
2021-11-13T09:35:11Z,42.805,6.029,13.3007,4.60031,2470.39,2021-11-13T11:36:37Z
2021-11-13T09:38:14Z,42.805,6.029,13.2998,4.60031,2470.38,2021-11-13T11:39:40Z
2021-11-13T09:41:17Z,42.805,6.029,13.3004,4.60028,2470.404,2021-11-13T11:42:43Z
2021-11-13T09:44:20Z,42.805,6.029,13.2998,4.60028,2470.39,2021-11-13T11:45:46Z
2021-11-13T09:47:23Z,42.805,6.029,13.2997,4.60030,2470.38,2021-11-13T11:48:49Z
2021-11-13T09:50:26Z,42.805,6.029,13.3004,4.60034,2470.38,2021-11-13T11:51:52Z
2021-11-13T09:53:30Z,42.805,6.029,13.3006,4.60040,2470.38,2021-11-13T11:54:55Z
2021-11-13T09:56:33Z,42.805,6.029,13.3001,4.60029,2470.413,2021-11-13T11:57:59Z
2021-11-13T09:59:36Z,42.805,6.029,13.3000,4.60027,2470.39,2021-11-13T12:01:02Z
2021-11-13T10:02:39Z,42.805,6.029,13.3003,4.60029,2470.413,2021-11-13T12:04:05Z
2021-11-13T10:05:42Z,42.805,6.029,13.3003,4.60042,2470.404,2021-11-13T12:07:08Z
2021-11-13T10:08:45Z,42.805,6.029,13.3002,4.60029,2470.413,2021-11-13T12:10:11Z
2021-11-13T10:11:48Z,42.805,6.029,13.3000,4.60029,2470.357,2021-11-13T12:13:14Z
2021-11-13T10:14:51Z,42.805,6.029,13.2999,4.60033,2470.427,2021-11-13T12:16:17Z
2021-11-13T10:17:55Z,42.805,6.029,13.3000,4.60033,2470.404,2021-11-13T12:19:20Z
2021-11-13T10:20:58Z,42.805,6.029,13.3009,4.60031,2470.39,2021-11-13T12:22:24Z
2021-11-13T10:24:01Z,42.805,6.029,13.2999,4.60024,2470.404,2021-11-13T12:25:27Z
2021-11-13T10:27:04Z,42.805,6.029,13.3010,4.60041,2470.413,2021-11-13T12:28:30Z
2021-11-13T10:30:07Z,42.805,6.029,13.3003,4.60041,2470.39,2021-11-13T12:31:33Z
2021-11-13T10:33:10Z,42.805,6.029,13.2999,4.60044,2470.427,2021-11-13T12:34:36Z
2021-11-13T10:36:13Z,42.805,6.029,13.3001,4.60028,2470.427,2021-11-13T12:37:39Z
2021-11-13T10:39:16Z,42.805,6.029,13.2997,4.60033,2470.39,2021-11-13T12:40:42Z
2021-11-13T10:42:20Z,42.805,6.029,13.2999,4.60039,2470.427,2021-11-13T12:43:45Z
2021-11-13T10:45:23Z,42.805,6.029,13.2998,4.60036,2470.39,2021-11-13T12:46:49Z
2021-11-13T10:48:26Z,42.805,6.029,13.3000,4.60024,2470.413,2021-11-13T12:49:52Z
2021-11-13T10:51:29Z,42.805,6.029,13.3004,4.60033,2470.39,2021-11-13T12:52:55Z
2021-11-13T10:54:32Z,42.805,6.029,13.2998,4.60024,2470.404,2021-11-13T12:55:58Z
2021-11-13T10:57:35Z,42.805,6.029,13.3002,4.60029,2470.427,2021-11-13T12:59:01Z
2021-11-13T11:00:38Z,42.805,6.029,13.2998,4.60032,2470.413,2021-11-13T13:02:04Z
2021-11-13T11:03:41Z,42.805,6.029,13.3000,4.60027,2470.39,2021-11-13T13:05:07Z
2021-11-13T11:06:45Z,42.805,6.029,13.3004,4.60034,2470.427,2021-11-13T13:08:10Z
2021-11-13T11:09:48Z,42.805,6.029,13.3004,4.60031,2470.404,2021-11-13T13:11:14Z
2021-11-13T11:12:51Z,42.805,6.029,13.2998,4.60034,2470.404,2021-11-13T13:14:17Z
2021-11-13T11:15:54Z,42.805,6.029,13.3005,4.60034,2470.39,2021-11-13T13:17:20Z
2021-11-13T11:18:57Z,42.805,6.029,13.3004,4.60036,2470.413,2021-11-13T13:20:23Z
2021-11-13T11:22:00Z,42.805,6.029,13.3001,4.60040,2470.437,2021-11-13T13:23:26Z
2021-11-13T11:25:03Z,42.805,6.029,13.2996,4.60038,2470.427,2021-11-13T13:26:29Z
2021-11-13T11:28:07Z,42.805,6.029,13.3005,4.60029,2470.437,2021-11-13T13:29:32Z
2021-11-13T11:31:10Z,42.805,6.029,13.3000,4.60026,2470.404,2021-11-13T13:32:35Z
2021-11-13T11:34:13Z,42.805,6.029,13.2995,4.60025,2470.39,2021-11-13T13:35:39Z
2021-11-13T11:37:16Z,42.805,6.029,13.2998,4.60034,2470.413,2021-11-13T13:38:42Z
2021-11-13T11:40:19Z,42.805,6.029,13.2999,4.60029,2470.427,2021-11-13T13:41:45Z
2021-11-13T11:43:22Z,42.805,6.029,13.3003,4.60035,2470.427,2021-11-13T13:44:48Z
2021-11-13T11:46:25Z,42.805,6.029,13.3004,4.60037,2470.427,2021-11-13T13:47:51Z
2021-11-13T11:49:28Z,42.805,6.029,13.3004,4.60029,2470.413,2021-11-13T13:50:54Z
2021-11-13T11:52:32Z,42.805,6.029,13.3002,4.60029,2470.39,2021-11-13T13:53:57Z
2021-11-13T11:55:35Z,42.805,6.029,13.3005,4.60031,2470.427,2021-11-13T13:57:00Z
2021-11-13T11:58:38Z,42.805,6.029,13.3002,4.60036,2470.413,2021-11-13T14:00:04Z
2021-11-13T12:01:41Z,42.805,6.029,13.3005,4.60029,2470.45,2021-11-13T14:03:07Z
2021-11-13T12:04:44Z,42.805,6.029,13.3004,4.60029,2470.427,2021-11-13T14:06:10Z
2021-11-13T12:07:47Z,42.805,6.029,13.3001,4.60028,2470.39,2021-11-13T14:09:13Z
2021-11-13T12:10:50Z,42.805,6.029,13.3000,4.60032,2470.427,2021-11-13T14:12:16Z
2021-11-13T12:13:53Z,42.805,6.029,13.3005,4.60030,2470.45,2021-11-13T14:15:19Z
2021-11-13T12:16:57Z,42.805,6.029,13.2996,4.60033,2470.45,2021-11-13T14:18:22Z
2021-11-13T12:20:00Z,42.805,6.029,13.2998,4.60033,2470.45,2021-11-13T14:21:25Z
2021-11-13T12:23:03Z,42.805,6.029,13.3000,4.60036,2470.413,2021-11-13T14:24:29Z
2021-11-13T12:26:06Z,42.805,6.029,13.3004,4.60039,2470.46,2021-11-13T14:27:32Z
2021-11-13T12:29:09Z,42.805,6.029,13.2999,4.60029,2470.437,2021-11-13T14:30:35Z
2021-11-13T12:32:12Z,42.805,6.029,13.2999,4.60028,2470.46,2021-11-13T14:33:38Z
2021-11-13T12:35:15Z,42.805,6.029,13.3004,4.60033,2470.474,2021-11-13T14:36:41Z
2021-11-13T12:38:18Z,42.805,6.029,13.3000,4.60036,2470.45,2021-11-13T14:39:44Z
2021-11-13T12:41:22Z,42.805,6.029,13.3003,4.60029,2470.437,2021-11-13T14:42:47Z
2021-11-13T12:44:25Z,42.805,6.029,13.3001,4.60025,2470.413,2021-11-13T14:45:51Z
2021-11-13T12:47:28Z,42.805,6.029,13.3000,4.60025,2470.437,2021-11-13T14:48:54Z
2021-11-13T12:50:31Z,42.805,6.029,13.3000,4.60025,2470.413,2021-11-13T14:51:57Z
2021-11-13T12:53:34Z,42.805,6.029,13.3001,4.60036,2470.474,2021-11-13T14:55:00Z
2021-11-13T12:56:37Z,42.805,6.029,13.3003,4.60034,2470.46,2021-11-13T14:58:03Z
2021-11-13T12:59:40Z,42.805,6.029,13.2998,4.60041,2470.437,2021-11-13T15:01:06Z
2021-11-13T13:02:43Z,42.805,6.029,13.2999,4.60026,2470.46,2021-11-13T15:04:09Z
2021-11-13T13:05:47Z,42.805,6.029,13.2998,4.60029,2470.46,2021-11-13T15:07:12Z
2021-11-13T13:08:50Z,42.805,6.029,13.3008,4.60031,2470.483,2021-11-13T15:10:16Z
2021-11-13T13:11:53Z,42.805,6.029,13.2998,4.60036,2470.437,2021-11-13T15:13:19Z
2021-11-13T13:14:56Z,42.805,6.029,13.3004,4.60037,2470.45,2021-11-13T15:16:22Z
2021-11-13T13:17:59Z,42.805,6.029,13.3004,4.60044,2470.437,2021-11-13T15:19:25Z
2021-11-13T13:21:02Z,42.805,6.029,13.3002,4.60029,2470.46,2021-11-13T15:22:28Z
2021-11-13T13:24:05Z,42.805,6.029,13.3008,4.60027,2470.474,2021-11-13T15:25:31Z
2021-11-13T13:27:08Z,42.805,6.029,13.3006,4.60030,2470.46,2021-11-13T15:28:34Z
2021-11-13T13:30:12Z,42.805,6.029,13.2999,4.60029,2470.497,2021-11-13T15:31:37Z
2021-11-13T13:33:15Z,42.805,6.029,13.3000,4.60033,2470.497,2021-11-13T15:34:41Z
2021-11-13T13:36:18Z,42.805,6.029,13.3006,4.60033,2470.46,2021-11-13T15:37:44Z
2021-11-13T13:39:21Z,42.805,6.029,13.3003,4.60036,2470.474,2021-11-13T15:40:47Z
2021-11-13T13:42:24Z,42.805,6.029,13.3001,4.60029,2470.46,2021-11-13T15:43:50Z
2021-11-13T13:45:27Z,42.805,6.029,13.3002,4.60026,2470.497,2021-11-13T15:46:53Z
2021-11-13T13:48:30Z,42.805,6.029,13.3004,4.60030,2470.497,2021-11-13T15:49:56Z
2021-11-13T13:51:33Z,42.805,6.029,13.2999,4.60044,2470.46,2021-11-13T15:52:59Z
2021-11-13T13:54:37Z,42.805,6.029,13.3006,4.60037,2470.46,2021-11-13T15:56:02Z
2021-11-13T13:57:40Z,42.805,6.029,13.3001,4.60032,2470.46,2021-11-13T15:59:06Z
2021-11-13T14:00:43Z,42.805,6.029,13.3005,4.60033,2470.507,2021-11-13T16:02:09Z
2021-11-13T14:03:46Z,42.805,6.029,13.3006,4.60035,2470.483,2021-11-13T16:05:12Z
2021-11-13T14:06:49Z,42.805,6.029,13.3004,4.60033,2470.483,2021-11-13T16:08:15Z
2021-11-13T14:09:52Z,42.805,6.029,13.3002,4.60032,2470.52,2021-11-13T16:11:18Z
2021-11-13T14:12:55Z,42.805,6.029,13.3004,4.60031,2470.46,2021-11-13T16:14:21Z
2021-11-13T14:15:58Z,42.805,6.029,13.2998,4.60029,2470.52,2021-11-13T16:17:24Z
2021-11-13T14:19:02Z,42.805,6.029,13.3008,4.60033,2470.46,2021-11-13T16:20:27Z
2021-11-13T14:22:05Z,42.805,6.029,13.3005,4.60028,2470.483,2021-11-13T16:23:31Z
2021-11-13T14:25:08Z,42.805,6.029,13.3004,4.60045,2470.507,2021-11-13T16:26:34Z
2021-11-13T14:28:11Z,42.805,6.029,13.3006,4.60030,2470.483,2021-11-13T16:29:37Z
2021-11-13T14:31:14Z,42.805,6.029,13.3000,4.60040,2470.483,2021-11-13T16:32:40Z
2021-11-13T14:34:17Z,42.805,6.029,13.3004,4.60043,2470.53,2021-11-13T16:35:43Z
2021-11-13T14:37:20Z,42.805,6.029,13.3004,4.60042,2470.507,2021-11-13T16:38:46Z
2021-11-13T14:40:24Z,42.805,6.029,13.3000,4.60032,2470.497,2021-11-13T16:41:49Z
2021-11-13T14:43:27Z,42.805,6.029,13.3001,4.60026,2470.483,2021-11-13T16:44:52Z
2021-11-13T14:46:30Z,42.805,6.029,13.2997,4.60032,2470.507,2021-11-13T16:47:56Z
2021-11-13T14:49:33Z,42.805,6.029,13.3001,4.60027,2470.497,2021-11-13T16:50:59Z
2021-11-13T14:52:36Z,42.805,6.029,13.2999,4.60035,2470.53,2021-11-13T16:54:02Z
2021-11-13T14:55:39Z,42.805,6.029,13.3000,4.60031,2470.507,2021-11-13T16:57:05Z
2021-11-13T14:58:42Z,42.805,6.029,13.3004,4.60044,2470.497,2021-11-13T17:00:08Z
2021-11-13T15:01:45Z,42.805,6.029,13.3001,4.60032,2470.483,2021-11-13T17:03:11Z